User: anonymous
Location: Saddleback Butte
(34.6776°N, 117.8050°W)
Time: 09:22:02
(UTC-07:00)
Language:

Cosmos 1862 Rocket - Orbit

View from above orbital plane
View from above orbital plane
View from above satellite
View from above satellite

Ground track
Ground track

The orbit data is extracted from the following two-line orbital elements,

1 18153U 87055B   14264.78597334  .00000260  00000-0  29070-4 0  4542
2 18153 082.5006 322.5342 0023271 133.2884 013.9269 14.82674289470244
Epoch (UTC): 21 September 2014 18:51:48
Eccentricity: 0.0023271
inclination: 82.5006°
perigee height: 604 km
apogee height: 637 km
right ascension of ascending node: 322.5342°
argument of perigee: 133.2884°
revolutions per day: 14.82674289
mean anomaly at epoch: 13.9269°
orbit number at epoch: 47024

The dashed part of the orbit path shows where the satellite is in the earth's shadow,  

DLR